Weather History for Decimomannu, Italy

Change the Weather History Date:

Tuesday, December 24, 2013

  Actual Average Record
Temperature  
Mean Temperature 56 °F -  
Max Temperature 65 °F 57 °F 65 °F (2013)
Min Temperature 46 °F 40 °F 26 °F (1998)
Degree Days  
Heating Degree Days 10    
Growing Degree Days 6 (Base 50)    
Moisture  
Dew Point 50 °F    
Average Humidity 87    
Maximum Humidity 100    
Minimum Humidity 75    
Precipitation  
Precipitation 0.00 in 0.07 in - ()
Sea Level Pressure  
Sea Level Pressure 30.16 in    
Wind  
Wind Speed 2 mph ()    
Max Wind Speed 7 mph    
Max Gust Speed -    
Visibility 3.6 miles    
Events Fog , Rain    
Averages and records for this station are not official NWS values.
T = Trace of Precipitation, MM = Missing Value Source: Averaged Metar Reports

Daily Weather History Graph

Daily Weather History Graph

Search for Another Location

Airport:

Trip Planner

Search our weather history database for the weather conditions in past years. The results will help you decide how hot, cold, wet, or windy it might be!

Date:

Astronomy

Dec. 24, 2013 Rise Set
Actual Time 7:41 AM CET 5:05 PM CET
Civil Twilight 7:11 AM CET 5:35 PM CET
Nautical Twilight 6:37 AM CET 6:09 PM CET
Astronomical Twilight 6:05 AM CET 6:42 PM CET
Moon 11:55 PM CET (12/24) 11:30 AM CET (12/24)
Length of Visible Light 10h 24m
Length of Day
9h 23m
Waning Gibbous, 61% of the Moon is Illuminated
Dec 24
Waning Gibbous
Dec 25
Last Quarter
Jan 1
New
Jan 8
First Quarter
Jan 16
Full

Hourly Weather History & Observations

Time (CET) Temp. Dew Point Humidity Pressure Visibility Wind Dir Wind Speed Gust Speed Precip Events Conditions
12:55 AM 46.4 °F 42.8 °F 87% 30.24 in 0.5 mi NW 2.3 mph - N/A Fog Fog
1:00 AM 47 °F 43 °F 82% 30.25 in 0 mi NW 2.3 mph - - Fog Partial Fog
1:55 AM 48.2 °F 44.6 °F 87% 30.21 in 0.9 mi NNW 1.2 mph - N/A   Scattered Clouds
2:55 AM 48.2 °F 44.6 °F 87% 30.21 in 0.9 mi Calm Calm - N/A   Scattered Clouds
3:55 AM 48.2 °F 46.4 °F 93% 30.21 in 0.9 mi Calm Calm - N/A   Scattered Clouds
4:00 AM 49 °F 46 °F 85% 30.22 in 1 mi Calm Calm - -   Mist
4:55 AM 48.2 °F 46.4 °F 93% 30.21 in 1.2 mi Calm Calm - N/A   Scattered Clouds
5:55 AM 50.0 °F 50.0 °F 100% 30.21 in 1.2 mi Calm Calm - N/A   Scattered Clouds
6:55 AM 50.0 °F 46.4 °F 87% 30.18 in 3.1 mi NNE 1.2 mph - N/A   Scattered Clouds
7:00 AM 50 °F 46 °F 81% 30.21 in 3 mi NNE 1.2 mph - -   Mist
7:30 AM 50.0 °F 46.4 °F 87% 30.18 in 0.6 mi ESE 1.2 mph - N/A   Scattered Clouds
7:55 AM 48.2 °F 44.6 °F 87% 30.18 in 0.2 mi ESE 1.2 mph - N/A Fog Fog
8:04 AM 48.2 °F 44.6 °F 87% 30.18 in 0.2 mi ESE 1.2 mph - N/A Fog Fog
8:55 AM 50.0 °F 46.4 °F 87% 30.18 in 0.6 mi Calm Calm - N/A   Partly Cloudy
9:55 AM 51.8 °F 50.0 °F 94% 30.18 in 3.1 mi Calm Calm - N/A   Partly Cloudy
10:00 AM 53 °F 49 °F 82% 30.21 in 3 mi Calm Calm - -   Mist
10:55 AM 57.2 °F 53.6 °F 88% 30.18 in 5.0 mi Calm Calm - N/A   Partly Cloudy
11:55 AM 62.6 °F 59.0 °F 88% 30.18 in 6.2 mi WSW 3.5 mph - N/A   Partly Cloudy
12:55 PM 60.8 °F 57.2 °F 88% 30.15 in 6.2 mi NW 3.5 mph - N/A Rain Light Rain
1:00 PM 61 °F 57 °F 82% 30.17 in 7 mi NW 3.5 mph - - Rain Light Rain
1:55 PM 64.4 °F 59.0 °F 83% 30.12 in 6.2 mi South 2.3 mph - N/A   Scattered Clouds
2:55 PM 62.6 °F 57.2 °F 82% 30.12 in 6.2 mi South 5.8 mph - N/A   Scattered Clouds
3:55 PM 62.6 °F 55.4 °F 77% 30.12 in 6.2 mi SSE 6.9 mph - N/A   Partly Cloudy
4:00 PM 62 °F 56 °F 75% 30.13 in 12 mi SSE 6.9 mph - -   Partly Cloudy
4:55 PM 59.0 °F 57.2 °F 94% 30.12 in 6.2 mi SSE 4.6 mph - N/A   Scattered Clouds
5:55 PM 55.4 °F 53.6 °F 94% 30.09 in 6.2 mi SSE 1.2 mph - N/A   Partly Cloudy
6:55 PM 55.4 °F 53.6 °F 94% 30.09 in 6.2 mi SSE 1.2 mph - N/A   Partly Cloudy
7:00 PM 55 °F 53 °F 91% 30.12 in 7 mi SSE 1.2 mph - -   Partly Cloudy
7:55 PM 53.6 °F 51.8 °F 94% 30.09 in 6.2 mi South 4.6 mph - N/A   Partly Cloudy
8:55 PM 51.8 °F 48.2 °F 88% 30.09 in 5.0 mi ESE 4.6 mph - N/A   Partly Cloudy
9:55 PM 50.0 °F 46.4 °F 87% 30.06 in 3.7 mi ESE 1.2 mph - N/A   Partly Cloudy
10:00 PM 50 °F 47 °F 84% 30.09 in 4 mi ESE 1.2 mph - -   Mist
10:55 PM 50.0 °F 46.4 °F 87% 30.06 in 3.1 mi SE 1.2 mph - N/A   Scattered Clouds
11:55 PM 46.4 °F 42.8 °F 87% 30.06 in 0.6 mi South 2.3 mph - N/A   Scattered Clouds